Location: Unspecified
(51.5147°N, 7.4673°E)
Time: 18:10:33
(UTC+01:00)

Vanguard 1 Rocket - Pass Details

Date: 23 February 2026
Orbit: 653 x 4214 km, 34.3° (Epoch: 12 March)

Event Time Altitude Azimuth Distance (km) Brightness Sun altitude
Rises 11:46:22 0° 200° (SSW) 3,671 11.3 27.5°
Reaches altitude 10° 11:49:42 10° 179° (S) 3,111 11.7 27.7°
Maximum altitude 11:54:21 17° 142° (SE) 3,192 11.6 27.8°
Drops below altitude 10° 12:00:43 10° 108° (ESE) 4,518 11.4 28.1°
Sets 12:07:19 0° 92° (E) 6,320 11.8 28.3°
